Left ArrowRight Arrow

Hourly Observations for April 12, 2020

Temp ( °F °C ) Dew Point ( °F °C ) Humidity (%) Winds ( mph kmh ) Pressure ( in mb ) Visibility ( mi km ) Precip ( " mm )
12:53 am 00:53 Mostly Cloudy 70 21.1 65 18.3 84 84 SSE 13 20 29.59 1002 9 14 0.00 0.00
1:53 am 01:53 Cloudy 70 21.1 66 18.9 87 87 SSE 16 26 29.57 1002 9 14 0.00 0.00
2:53 am 02:53 Cloudy 70 21.1 66 18.9 87 87 SSE 13 20 29.55 1001 8 13 0.00 0.00
3:16 am 03:16 Cloudy 70 21.1 66 18.9 87 87 S 9 15 29.57 1001 7 11 0.00 0.00
3:34 am 03:34 Cloudy 70 21.1 67 19.4 90 90 S 8 13 29.58 1002 7 11 0.00 0.00
3:53 am 03:53 Cloudy with Light Rain 70 21.1 67 19.4 90 90 SSE 10 17 29.56 1001 7 11 0.00 0.00
4:11 am 04:11 Cloudy with Light Rain 70 21.1 67 19.4 90 90 SSE 10 17 29.55 1001 6 10 0.00 0.00
4:35 am 04:35 Cloudy with Light Rain 71 21.7 67 19.4 87 87 SSE 14 22 29.53 1000 6 10 0.00 0.00
4:53 am 04:53 Cloudy with Light Rain 70 21.1 67 19.4 90 90 SE 9 15 29.52 1000 6 10 0.00 0.00
5:22 am 05:22 Cloudy with Thunderstorms 70 21.1 67 19.4 90 90 S 7 11 29.54 1000 5 8 0.00 0.00
5:45 am 05:45 Cloudy with Strong Thunderstorms 70 21.1 67 19.4 90 90 SSE 9 15 29.54 1000 3 4 0.05 1.27
5:53 am 05:53 Cloudy with Strong Thunderstorms 69 20.6 67 19.4 93 93 SSE 7 11 29.52 1000 3 4 0.08 2.03
6:22 am 06:22 Cloudy with Strong Thunderstorms 69 20.6 67 19.4 93 93 S 9 15 29.53 1000 4 6 0.10 2.54
6:53 am 06:53 Cloudy with Strong Thunderstorms 68 20 62 16.7 81 81 S 6 9 29.54 1001 5 8 0.20 5.08
7:26 am 07:26 Mostly Cloudy with Light Rain 66 18.9 62 16.7 87 87 N 5 7 29.47 998 10 16 0.06 1.52
7:53 am 07:53 Mostly Cloudy 66 18.9 62 16.7 87 87 NNW 7 11 29.49 999 10 16 0.06 1.52
8:53 am 08:53 Partly Cloudy 69 20.6 64 17.8 84 84 Calm 29.48 998 10 16 0.00 0.00
9:53 am 09:53 Partly Cloudy 71 21.7 64 17.8 79 79 Calm 29.47 998 10 16 0.00 0.00
10:53 am 10:53 Partly Cloudy 73 22.8 62 16.7 69 69 W 7 11 29.48 998 10 16 0.00 0.00
11:53 am 11:53 Mostly Cloudy 75 23.9 61 16.1 62 62 W 7 11 29.49 999 10 16 0.00 0.00
12:53 pm 12:53 Partly Cloudy 78 25.6 59 15 52 52 WSW 8 13 29.48 998 10 16 0.00 0.00
1:53 pm 13:53 Mostly Sunny 80 26.7 56 13.3 44 44 WSW 12 19 29.47 998 10 16 0.00 0.00
2:53 pm 14:53 Partly Cloudy 80 26.7 54 12.2 41 41 WSW 15 24 29.48 998 10 16 0.00 0.00
3:53 pm 15:53 Partly Cloudy 80 26.7 53 11.7 39 39 W 13 20 29.49 999 10 16 0.00 0.00
4:38 pm 16:38 Mostly Cloudy with Thunderstorms 79 26 50 10 37 37 WNW 20 31 29.49 999 10 16 0.00 0.00
4:53 pm 16:53 Mostly Cloudy with Thunderstorms 78 25.6 48 8.9 35 35 W 17 28 29.50 999 10 16 0.00 0.00
5:13 pm 17:13 Mostly Cloudy with Thunderstorms 74 23.3 43 6.1 33 33 SSW 12 19 29.51 999 10 16 0.00 0.00
5:34 pm 17:34 Mostly Cloudy 75 23.9 43 6.1 32 32 SSW 3 6 29.51 999 10 16 0.00 0.00
5:53 pm 17:53 Mostly Cloudy 78 25.6 44 6.7 30 30 SSW 3 6 29.52 1000 10 16 0.00 0.00
6:53 pm 18:53 Partly Cloudy 72 22.2 50 10 46 46 NNW 24 39 29.59 1002 10 16 0.00 0.00
7:53 pm 19:53 Mostly Sunny 66 18.9 46 7.8 49 49 NNW 17 28 29.67 1005 10 16 0.00 0.00
8:53 pm 20:53 Mostly Clear 60 15.6 44 6.7 56 56 NNW 20 31 29.77 1008 10 16 0.00 0.00
9:53 pm 21:53 Mostly Clear 53 11.7 38 3.3 57 57 NNW 28 44 29.86 1011 10 16 0.00 0.00
10:53 pm 22:53 Mostly Cloudy 49 9.4 36 2.2 61 61 NNW 22 35 29.94 1014 10 16 0.00 0.00
11:07 pm 23:07 Mostly Cloudy 48 8.9 36 2.2 63 63 NNW 17 28 29.97 1015 10 16 0.00 0.00
11:53 pm 23:53 Mostly Cloudy 47 8.3 34 1.1 61 61 N 20 31 29.97 1015 10 16 0.00 0.00

Powered by Vaisala Xweather